www.pogodaiklimat.ru

АРХИВ ПОГОДЫ в Краснодаре

Время (UTC), дата Ветер
(напр.,м/с)
 
Видим.   Явления Облачность Т
(С)
Тd
(С)
f
(%)
Тe
(С)
Тes
(С)
Комфортность P
(гПа)
Po
(гПа)
Тmin
(С)
Tmax
(С)
R
(мм)
S
(см)
12 23.07 З 3 10 км в посл. час ливневой дождь 9/8 1000 м
[Cb cap Ac trans]
+25.9 +15.9 54 +29 +31 душно 1012.7 1009.3
15 23.07 З 3 10 км 4/4 1000 м
[Sc diur, vesp]
+25.8 +13.8 47 +28 +29 жарко 1012.2 1008.8 +26.8 0.5
18 23.07 ЮЗ 1 10 км ясно +22.2 +13.7 59 +25 +25 комфорт 1012.6 1009.1
21 23.07 Ю 2 10 км ясно +19.9 +15.2 74 +23 +23 комфорт 1011.7 1008.2
00 24.07 Ю 2 10 км ясно +19.1 +15.2 78 +21 +21 комфорт 1010.7 1007.2
03 24.07 ЮЗ 2 10 км 8/5 1000 м
[Cb cap Ac trans]
+20.4 +15.7 74 +24 +24 комфорт 1010.0 1006.5 +19.0
06 24.07 ЮЗ 3 10 км 4/0
[Ac trans]
+25.5 +15.9 55 +29 +35 душно 1008.9 1005.4
09 24.07 ЮЗ 2
{10}
10 км в посл. час ливневой дождь 9/9 1000 м
[Cb cap]
+22.2 +18.2 78 +27 +29 душно 1008.6 1005.2
12 24.07 З 3
{11}
10 км {гроза, ливн. осадки} 8/8 1000 м
[Cb cap]
+24.7 +16.5 60 +28 +30 душно 1008.9 1005.4
15 24.07 З 4
{10}
10 км 6/6 1000 м
[Cu med, cong]
+25.5 +14.2 50 +28 +28 жарко 1009.1 1005.6 +27.0 0.5
18 24.07 З 2 10 км 9/9 600 м
[Cb cap]
+23.7 +14.5 56 +26 +26 жарко 1010.1 1006.6
21 24.07 ЮЗ 2 10 км {ливн. осадки} 1/0
[Ac trans]
+19.8 +16.0 79 +23 +23 комфорт 1010.1 1006.6
00 25.07 З 1 10 км {ливн. осадки} ясно +19.5 +15.9 80 +23 +23 комфорт 1010.2 1006.7
03 25.07 Ю 1 10 км 1/0
[Ac trans]
+18.7 +16.1 85 +21 +21 комфорт 1010.8 1007.2 +17.7 0.3
06 25.07 З 2 10 км 8/8 600 м
[Cb cap]
+23.4 +16.2 64 +28 +30 душно 1011.6 1008.1
09 25.07 З 2 10 км 8/8 600 м
[Cb cap]
+26.5 +15.1 50 +29 +33 жарко 1011.6 1008.2
12 25.07 СЗ 2 10 км 8/8 600 м
[Cb cap]
+28.2 +12.9 39 +30 +32 жарко 1011.4 1008.0
15 25.07 З 2 10 км 5/5 1000 м
[Cu med, cong]
+28.8 +11.5 34 +29 +30 жарко 1011.6 1008.2 +29.9
18 25.07 штиль 0 10 км 4/4 1000 м
[Sc]
+24.3 +14.7 55 +27 +27 жарко 1013.5 1010.0
21 25.07 С 1 10 км ясно +22.3 +16.3 69 +27 +27 душно 1013.6 1010.1
00 26.07 З 1 10 км ясно +20.7 +16.5 77 +25 +25 комфорт 1013.5 1010.0
03 26.07 штиль 0 10 км ясно +19.6 +16.3 81 +22 +22 комфорт 1013.9 1010.4 +19.2
06 26.07 СВ 1 10 км ясно +26.3 +15.6 52 +29 +40 жарко 1014.2 1010.7
09 26.07 СВ 2 10 км 8/8 1000 м
[Cu med, cong]
+29.4 +13.6 38 +31 +35 жарко 1013.6 1010.2
12 26.07 СВ 2 10 км 6/6 1000 м
[Cu med, cong]
+30.0 +14.0 38 +32 +37 жарко 1012.8 1009.4
15 26.07 ЮЗ 2 10 км 3/3 1000 м
[Sc diur, vesp]
+29.2 +13.8 39 +31 +32 жарко 1012.4 1009.0 +31.4
18 26.07 С 1 10 км ясно +25.5 +14.0 49 +28 +28 жарко 1013.0 1009.5
21 26.07 СВ 1 10 км ясно +24.0 +15.0 57 +27 +27 жарко 1013.2 1009.7
00 27.07 СВ 1 10 км ясно +22.3 +15.3 65 +26 +26 жарко 1013.2 1009.7
03 27.07 В 1 10 км ясно +20.7 +15.3 71 +25 +25 комфорт 1013.6 1010.1 +20.3
06 27.07 В 1 10 км ясно +26.8 +16.5 53 +30 +41 душно 1013.6 1010.2
09 27.07 СВ 3 10 км 3/3 1000 м
[Cu med, cong]
+30.3 +13.2 35 +32 +42 жарко 1013.2 1009.8
12 27.07 СВ 2 10 км 6/3 1000 м
[Cu med, cong Ci fib]
+32.1 +12.3 30 +33 +41 жарко 1012.6 1009.2
15 27.07 СВ 3 10 км 5/3 1000 м
[Cu med, cong Ci fib]
+30.6 +13.0 34 +32 +33 жарко 1011.9 1008.5 +32.2
18 27.07 СВ 1 10 км 5/0
[Ci fib]
+27.1 +14.2 45 +29 +29 жарко 1012.7 1009.3
21 27.07 СВ 1 10 км ясно +24.5 +14.2 53 +27 +27 жарко 1012.8 1009.3
00 28.07 СВ 1 10 км ясно +22.4 +14.6 61 +26 +26 жарко 1012.7 1009.2
03 28.07 СВ 1 10 км ясно +21.2 +14.9 67 +24 +25 комфорт 1013.1 1009.6 +21.2
06 28.07 СВ 2 10 км ясно +26.9 +16.0 51 +30 +39 душно 1013.3 1009.8 +21.2
09 28.07 СВ 1 10 км 3/3 1000 м
[Cu hum]
+32.0 +13.8 33 +33 +48 жарко 1012.6 1009.3
12 28.07 СВ 2 10 км 4/4 1000 м
[Cu med, cong]
+32.8 +12.5 29 +33 +41 жарко 1011.9 1008.6
15 28.07 СВ 2 10 км 3/3 1000 м
[Cu med, cong]
+31.0 +13.8 35 +32 +34 жарко 1011.6 1008.2 +33.4
18 28.07 СВ 2 10 км ясно +28.2 +14.3 43 +30 +30 жарко 1012.1 1008.7
21 28.07 СВ 1 10 км ясно +25.3 +14.1 50 +28 +28 жарко 1012.5 1009.1
00 29.07 В 1 10 км ясно +22.6 +14.8 61 +26 +26 жарко 1012.5 1009.0
03 29.07 СВ 2 10 км ясно +21.7 +15.6 68 +25 +26 комфорт 1013.2 1009.7 +21.7
06 29.07 В 2 10 км ясно +27.1 +15.2 48 +30 +39 душно 1013.3 1009.9 +21.5
09 29.07 В 3 10 км ясно +31.5 +11.2 29 +32 +46 жарко 1012.9 1009.5
12 29.07 В 3 10 км 1/1 1000 м
[Cu hum]
+32.5 +10.2 25 +32 +41 жарко 1011.7 1008.3
15 29.07 В 3 10 км ясно +31.5 +9.2 25 +31 +32 жарко 1010.8 1007.4 +32.8
18 29.07 СВ 2 10 км ясно +27.7 +11.0 35 +28 +28 жарко 1011.1 1007.6
21 29.07 В 2 10 км ясно +24.5 +9.6 39 +25 +25 комфорт 1010.4 1006.9
00 30.07 В 1 10 км ясно +21.4 +10.0 48 +23 +23 комфорт 1010.5 1007.0
03 30.07 В 1 10 км ясно +20.6 +9.6 49 +23 +24 комфорт 1010.8 1007.3 +20.6
06 30.07 СВ 2 10 км ясно +26.9 +11.2 38 +28 +37 жарко 1010.8 1007.4 +19.8
09 30.07 В 4
{10}
10 км ясно +31.8 +7.8 22 +30 +42 жарко 1010.0 1006.6

 

Местоположение метеостанции Краснодар (Краснодарский край, Россия): широта 45.05 долгота 39.03 высота над уровнем моря 29 м.

В архиве по умолчанию представлена погода в Краснодаре за последнюю неделю. Архивные данные за месяц целиком и за предыдущие месяцы, начиная с января 2011 года, Вы можете получить, выбрав интересующий диапазон дат из раскрывающегося списка и нажав кнопку "Ввод!".

Внимание! Время в таблицах - всемирное. Для получения местного времени необходимо прибавить поправку, которая в Краснодаре равна 3 ч.

Ветер - указаны скорость ветра в м/с - средняя за 10 мин, порывы в срок и между сроками (в фигурных скобках) и направление, откуда дует ветер: С - северный, СВ - северо-восточный, В - восточный, ЮВ - юго-восточный, Ю - южный, ЮЗ - юго-западный, З - западный, СЗ - северо-западный.
Видимость - горизонтальная дальность видимости в метрах или километрах. При видимости от 1 до 10 км при отсутствии осадков обычно наблюдается дымка, при ухудшении видимости до 1 км и менее - туман. В сухую погоду видимость может ухудшаться дымом, пылью или мглою.
Явления - указаны атмосферные явления, наблюдавшиеся в срок или в последний час перед сроком; фигурными скобками обозначены явления, наблюдавшиеся между сроками (за 1-3 часа до срока); квадратными скобками обозначены град или гололедные отложения с указанием их диаметра в мм.
Облачность - указаны через наклонную черту общая и нижняя облачность в баллах и высота нижней границы облаков в метрах; квадратными скобками обозначены формы облаков: Ci - перистые, Cs - перисто-слоистые, Cc - перисто-кучевые, Ac - высококучевые, As - высокослоистые, Sc - слоисто-кучевые, Ns - слоисто-дождевые, Cu - кучевые, Cb - кучево-дождевые. Подробнее классификацию облаков см. в Атласе облаков (PDF).
T - Температура воздуха - температура, измеренная на высоте 2 м над землей.
Td - Температура точки росы - температура, при понижении до которой содержащийся в воздухе водяной пар достигнет насыщения.
f - Относительная влажность воздуха - влажноcть воздуха, измеренная на высоте 2 м над землей.
Te - Эффективная температура - температура, которую ощущает одетый по сезону человек в тени. Характеристика душности погоды. При расчете учитывается влияние влажности воздуха и скорости ветра на теплоощущения человека.
Tes - Эффективная температура на солнце - температура, которую ощущает человек, с поправкой на солнечный нагрев. Характеристика знойности погоды. Зависит от высоты солнца над горизонтом, облачности и скорости ветра. Ночью, в пасмурную погоду, а также при ветре 12 м/с и более поправка равна нулю.
P - Атмосферное давление - приведенное к уровню моря атмосферное давление.
Po - Атмосферное давление - измеренное на уровне метеостанции атмосферное давление.
Tmin - Минимальная температура - минимум температуры воздуха на высоте 2 м над землей.
Tmax - Максимальная температура - максимум температуры воздуха на высоте 2 м над землей.
R - Количество осадков - Количество выпавших осадков, мм. При наведении курсора мыши на число - период времени, за который выпало указанное количество осадков.
S - Снежный покров - Высота снежного покрова, см. При наведении курсора мыши на число - состояние снежного покрова и степень покрытия местности в баллах.